FENGYUN 1C DEB, 31001

Orbit data source: Space-Track

FENGYUN 1C DEB, 31001 is space debris in SSO originally from a launch on Mon, 10 May 1999 UTC launched from the Taiyaun Space Center, China (TSC). Fengyun 1C debris stems from the Chinese weather satellite Fengyun-1C, which was intentionally destroyed by a Chinese anti-satellite missile in 2007. This event dramatically increased the amount of space debris, with thousands of trackable fragments posing hazards to satellites and human spaceflight. The Fengyun 1C debris cloud has become a focal point in discussions about space sustainability and the need for international regulations to prevent the creation of new debris.

Loading next visibility...
Identifier
31001, 1999-025BCT
Orbit
SSO
Country
Flag of CNCN / PRC
Related business
Manufacturer
Unknown
Mission
Spacecraft
Bus & Motor
Unknown
Mass
Unknown
Launch date (UTC)
1999-05-10 (27 years ago)
Launch vehicle
Unknown
Launch site
Taiyaun Space Center, China (TSC)
Object type
Payload
Rocket body
Debris
Shape & HBR
Unknown shape, 0.1 m
Radar Cross Section
Small (<0.1 m²)

Expand to show TLE details & history
Last TLE update: 1 week ago

TLE from 1 week ago
0 FENGYUN 1C DEB
1 31001U 99025BCT 26157.97715168  .00001511  00000-0  40855-3 0  9998
2 31001  99.2536  51.1958 0145758 354.7006   5.2632 14.43412795  7279
Epoch: 2026-06-06T23:27Z
TLE epoch observation values (Epoch: 2026-06-06T23:27:05.905Z)
Latitude
0.00002°
Longitude
164.03622°
Altitude
646.746 km
Speed
7.589 km/s
True Right ascension
03h 24m 46s
True Declination
0° 00' 00"
Sunlit
Object was in daylight at epoch
Visualization orbit readout
Latitude
Unknown
Longitude
Unknown
Altitude
Unknown
Speed
Unknown
Apparent Right ascension
Unknown
Apparent Declination
Unknown
Sunlit
N/A
Visualization observer readout
Local Sidereal Time
15:36:50
Azimuth
Unknown
Elevation
Unknown
Doppler factor
Unknown
Orbital elements
Apogee altitude
848.215 km
Perigee altitude
640.582 km
Semi-major axis
7,122.535 km
Eccentricity
0.01458
Inclination
99.2536°
RAAN
51.1958°
Arg. of periapsis
354.7006°
True anomaly
5.41924°
Mean anomaly
5.2632°
Eccentric anomaly
5.34094°
Mean motion
3.6107 °/min
Orbital period
99.7 mins
BSTAR
0.00040855
Loading maneuver chart data...
Computing Atmospheric mass density...

Documentation

Showing up to 5 results
|